Regional Weather Roundup
Issued by NWS

Home | Current Version | Previous Version | Text Only | Print | Product List | Glossary On
Versions: 1 2 3 4 5 6 7 8 9 10 11 12 13 14 15 16 17 18 19 20 21 22 23 24 25 26 27
000
ASUS44 KBMX 312110
RWRAL

ALABAMA REGIONAL WEATHER ROUNDUP
NATIONAL WEATHER SERVICE BIRMINGHAM AL
400 PM CDT TUE MAY 31 2016

NOTE: "FAIR" INDICATES FEW OR NO CLOUDS BELOW 12,000 FEET
WITH NO SIGNIFICANT WEATHER AND/OR OBSTRUCTIONS TO VISIBILITY.

THE REMARK "TC" DENOTES TEMPERATURE IN DEGREES CELSIUS.

ALZ001>011-014-016>018-020-312200-
NORTH ALABAMA

CITY           SKY/WX    TMP DP  RH WIND       PRES   REMARKS
MUSCLE SHOALS  CLOUDY    90  56  31 VRB6      29.92F
HUNTSVILLE     PTSUNNY   92  60  34 NW6       29.90F HX  91
DECATUR        MOSUNNY   87  64  46 W14       29.91F
HALEYVILLE     FAIR      81  63  54 NW6       29.95F
GADSDEN        SUNNY     91  62  37 CALM      29.89F HX  91
$$

ALZ012-013-022-023-030>036-040>044-312200-
WEST CENTRAL ALABAMA

CITY           SKY/WX    TMP DP  RH WIND       PRES   REMARKS
TUSCALOOSA     CLOUDY    76  65  68 E7        29.91S
$$

ALZ015-024>027-033>036-040>044-312200-
CENTRAL ALABAMA

CITY           SKY/WX    TMP DP  RH WIND       PRES   REMARKS
BIRMINGHAM     CLOUDY    77  63  61 NE5       29.94F
MONTGOMERY     SUNNY     95  57  27 NE6       29.87F HX  94
SHELBY CO ARPT CLOUDY    87  61  41 N8G18     29.90R
MAXWELL AFB    MOSUNNY   94  52  24 N8        29.87F HX  91
GREENVILLE     FAIR      96  53  23 CALM      29.87F HX  93
$$

ALZ019-021-028-029-037-038-045>048-312200-
EAST CENTRAL ALABAMA

CITY           SKY/WX    TMP DP  RH WIND       PRES   REMARKS
ANNISTON       SUNNY     93  53  25 VRB3      29.89F HX  90
ALEXANDER CITY CLOUDY    88  69  54 SW10      29.90S HX  92
AUBURN         SUNNY    N/A N/A N/A W6        29.90F
$$

ALZ051>064-312200-
SOUTHWEST ALABAMA

CITY           SKY/WX    TMP DP  RH WIND       PRES   REMARKS
MOBILE         CLOUDY    84  71  65 S9        29.90F
BROOKLEY FIELD CLOUDY    79  71  76 CALM      29.91S
EVERGREEN      PTSUNNY   82  69  64 CALM      29.89F
$$

ALZ049-050-065>069-312200-
SOUTHEAST ALABAMA

CITY           SKY/WX    TMP DP  RH WIND       PRES   REMARKS
DOTHAN         SUNNY     95  55  26 W5        29.90F HX  93
OZARK          CLOUDY    88  66  48 SW13G20   29.88F HX  90
TROY           MOSUNNY   96  61  31 VRB5      29.88F HX  96
EUFAULA        FAIR      95  63  34 SE8       29.86F HX  96
$$




USA.gov is the U.S. government's official web portal to all federal, state and local government web resources and services.